User: anonymous   Login
Location: Sedan
(39.2354°N, 78.5718°W)
Time: 10:52:42
(UTC+00:00)
Language:

WORLDVIEW 2 - Orbit

View from above orbital plane
View from above orbital plane
View from above satellite
View from above satellite

Ground track
Ground track

The orbit data is extracted from the following two-line orbital elements,

1 35946U 09055A   22229.10328782  .00000091  00000-0  44827-4 0  9993
2 35946  98.4841 303.4804 0001658 137.6380 222.4951 14.37656412674622
Epoch (UTC): 17 August 2022 02:28:44
Eccentricity: 0.0001658
inclination: 98.4841°
perigee height: 765 km
apogee height: 767 km
right ascension of ascending node: 303.4804°
argument of perigee: 137.6380°
revolutions per day: 14.37656412
mean anomaly at epoch: 222.4951°
orbit number at epoch: 67462

The dashed part of the orbit path shows where the satellite is in the earth's shadow,  

DLR